| time (UTC) | temp F | wind direction | speed MPH | gust MPH | rain 1hr in | rain 24hr in | rain mn in | humidity % | barometer mb |
| 20260503033047 | 63 | 103 | 0.0 | 0.0 | 0.00 | 0.00 | 0.00 | 91 | 1013.2 |
| 20260503031539 | 63 | 102 | 0.0 | 0.0 | 0.00 | 0.00 | 0.00 | 91 | 1013.2 |
| 20260503030037 | 63 | 100 | 0.0 | 0.0 | 0.00 | 0.00 | 0.00 | 91 | 1013.4 |
| 20260503024534 | 63 | 108 | 0.0 | 0.0 | 0.00 | 0.00 | 0.00 | 91 | 1013.8 |
| 20260503023033 | 63 | 89 | 0.0 | 0.0 | 0.00 | 0.00 | 0.00 | 91 | 1013.9 |
| 20260503021532 | 63 | 110 | 0.0 | 0.0 | 0.00 | 0.00 | 0.00 | 91 | 1014.0 |
| 20260503020032 | 63 | 105 | 0.0 | 0.0 | 0.00 | 0.00 | 0.00 | 91 | 1013.9 |
| 20260503014529 | 63 | 126 | 0.0 | 0.0 | 0.00 | 0.00 | 0.00 | 90 | 1014.0 |
| 20260503013038 | 63 | 108 | 0.0 | 0.0 | 0.00 | 0.00 | 0.00 | 91 | 1014.1 |
| 20260503011533 | 63 | 91 | 0.0 | 0.0 | 0.00 | 0.00 | 0.00 | 91 | 1014.4 |
| 20260503010025 | 63 | 87 | 0.0 | 0.0 | 0.00 | 0.00 | 0.00 | 91 | 1014.5 |
| 20260503004524 | 63 | 136 | 0.0 | 0.0 | 0.00 | 0.00 | 0.00 | 91 | 1014.5 |
| 20260503003022 | 63 | 122 | 0.0 | 0.0 | 0.00 | 0.00 | 0.00 | 91 | 1014.9 |
| 20260503001519 | 63 | 116 | 0.0 | 0.0 | 0.00 | 0.00 | 0.00 | 90 | 1014.9 |
| 20260503000019 | 63 | 116 | 0.0 | 0.0 | 0.00 | 0.00 | 0.00 | 91 | 1015.2 |
| 20260502234515 | 63 | 110 | 0.0 | 0.0 | 0.00 | 0.00 | 0.00 | 91 | 1015.6 |
| 20260502233018 | 63 | 103 | 0.0 | 0.0 | 0.00 | 0.00 | 0.00 | 90 | 1015.6 |
| 20260502231516 | 64 | 101 | 0.0 | 0.0 | 0.00 | 0.00 | 0.00 | 90 | 1015.5 |
| 20260502230017 | 64 | 100 | 0.0 | 0.0 | 0.00 | 0.00 | 0.00 | 90 | 1015.6 |
| 20260502224509 | 64 | 120 | 0.0 | 0.0 | 0.00 | 0.00 | 0.00 | 90 | 1015.7 |
| 20260502223008 | 64 | 105 | 0.0 | 0.0 | 0.00 | 0.00 | 0.00 | 89 | 1015.6 |
| 20260502221505 | 64 | 114 | 0.0 | 0.0 | 0.00 | 0.00 | 0.00 | 89 | 1015.8 |
| 20260502220004 | 64 | 116 | 0.0 | 0.0 | 0.00 | 0.00 | 0.00 | 89 | 1015.7 |
| 20260502214504 | 64 | 116 | 0.0 | 0.0 | 0.00 | 0.00 | 0.00 | 89 | 1015.7 |
| 20260502213003 | 64 | 122 | 0.0 | 0.0 | 0.00 | 0.00 | 0.00 | 88 | 1015.9 |
| 20260502211504 | 65 | 117 | 0.0 | 0.0 | 0.00 | 0.00 | 0.00 | 88 | 1015.7 |
| 20260502210004 | 65 | 115 | 0.0 | 0.0 | 0.00 | 0.00 | 0.00 | 88 | 1015.8 |
| 20260502204503 | 65 | 129 | 0.0 | 0.0 | 0.00 | 0.00 | 0.00 | 88 | 1015.8 |
| 20260502203001 | 65 | 127 | 0.0 | 0.0 | 0.00 | 0.00 | 0.00 | 87 | 1015.7 |
| 20260502201621 | 64 | 152 | 0.0 | 0.0 | 0.00 | 0.00 | 0.00 | 87 | 1015.7 |
| 20260502200101 | 64 | 171 | 0.0 | 0.0 | 0.00 | 0.00 | 0.00 | 87 | 1015.8 |
| 20260502194603 | 65 | 158 | 0.0 | 2.0 | 0.00 | 0.00 | 0.00 | 87 | 1015.5 |
| 20260502193118 | 65 | 117 | 0.0 | 0.0 | 0.00 | 0.00 | 0.00 | 87 | 1015.5 |
| 20260502191559 | 65 | 105 | 0.0 | 0.0 | 0.00 | 0.00 | 0.00 | 87 | 1015.2 |
| 20260502190058 | 65 | 120 | 0.0 | 4.0 | 0.00 | 0.00 | 0.00 | 86 | 1015.2 |
| 20260502184555 | 65 | 135 | 0.0 | 1.0 | 0.00 | 0.00 | 0.00 | 86 | 1015.1 |
| 20260502183057 | 65 | 117 | 0.0 | 3.0 | 0.00 | 0.00 | 0.00 | 86 | 1015.6 |
| 20260502181552 | 65 | 115 | 0.0 | 5.0 | 0.00 | 0.00 | 0.00 | 86 | 1015.7 |
| 20260502163048 | 67 | 153 | 0.0 | 6.0 | 0.00 | 0.00 | 0.00 | 83 | 1016.0 |
| 20260502161552 | 67 | 129 | 0.0 | 8.0 | 0.00 | 0.00 | 0.00 | 83 | 1016.1 |
| 20260502151545 | 68 | 167 | 1.0 | 7.0 | 0.00 | 0.00 | 0.00 | 81 | 1016.3 |
| 20260502123023 | 68 | 180 | 0.0 | 9.0 | 0.00 | 0.00 | 0.00 | 82 | 1018.0 |
| 20260502121518 | 68 | 153 | 0.0 | 3.0 | 0.00 | 0.00 | 0.00 | 83 | 1018.3 |
| 20260502114525 | 68 | 150 | 0.0 | 8.0 | 0.00 | 0.03 | 0.00 | 81 | 1018.3 |
| 20260502113019 | 69 | 150 | 0.0 | 7.0 | 0.00 | 0.03 | 0.00 | 80 | 1018.4 |
| 20260502111514 | 68 | 143 | 0.0 | 7.0 | 0.00 | 0.03 | 0.00 | 82 | 1018.5 |
| 20260502110015 | 69 | 176 | 0.0 | 8.0 | 0.00 | 0.03 | 0.00 | 81 | 1018.6 |
| 20260502104518 | 69 | 192 | 0.0 | 6.0 | 0.00 | 0.13 | 0.00 | 80 | 1018.8 |
| 20260502103010 | 69 | 123 | 0.0 | 2.0 | 0.00 | 0.13 | 0.00 | 79 | 1018.8 |
| 20260502101510 | 69 | 86 | 0.0 | 5.0 | 0.00 | 0.13 | 0.00 | 79 | 1018.8 |
| 20260502091503 | 68 | 107 | 0.0 | 0.0 | 0.00 | 0.13 | 0.00 | 80 | 1019.0 |
| 20260502080105 | 67 | 135 | 0.0 | 3.0 | 0.00 | 0.13 | 0.00 | 81 | 1019.0 |
| 20260502070058 | 65 | 100 | 0.0 | 0.0 | 0.00 | 0.13 | 0.00 | 86 | 1019.0 |
| 20260502064612 | 65 | 115 | 0.0 | 0.0 | 0.00 | 0.13 | 0.00 | 87 | 1019.2 |
| 20260502063054 | 64 | 115 | 0.0 | 0.0 | 0.00 | 0.13 | 0.00 | 88 | 1019.5 |
| 20260502061544 | 64 | 114 | 0.0 | 0.0 | 0.00 | 0.13 | 0.00 | 89 | 1019.3 |
| 20260502060046 | 63 | 114 | 0.0 | 0.0 | 0.00 | 0.13 | 0.00 | 89 | 1019.2 |
| 20260502054541 | 63 | 115 | 0.0 | 0.0 | 0.00 | 0.13 | 0.00 | 90 | 1019.0 |
| 20260502053036 | 0 | 0.0 | 0.0 | 0.00 | 0.13 | 0.00 | 1018.9 | ||
| 20260502051535 | 0 | 0.0 | 0.0 | 0.00 | 0.13 | 0.00 | 1018.8 | ||
| 20260502050034 | 0 | 0.0 | 0.0 | 0.00 | 0.13 | 0.00 | 1018.8 | ||
| 20260502044523 | 0 | 0.0 | 0.0 | 0.00 | 0.13 | 0.00 | 1018.9 | ||
| 20260502043019 | 0 | 0.0 | 0.0 | 0.00 | 0.13 | 0.00 | 1018.8 | ||
| 20260502041515 | 0 | 0.0 | 0.0 | 0.00 | 0.13 | 0.00 | 1018.9 | ||
| 20260502040018 | 63 | 114 | 0.0 | 0.0 | 0.00 | 0.13 | 0.00 | 90 | 1019.1 |
| 20260502034511 | 63 | 114 | 0.0 | 0.0 | 0.00 | 0.13 | 0.00 | 91 | 1019.2 |